This is the latest recevied weather packets stored in our database for station/object DG1ROH. If no packets are shown the sender has not sent any weather packets the latest 1 day(s).
| Time | Temp. | Humidity | Pressure | Rain* | Wind** | Luminosity | Snow |
|---|---|---|---|---|---|---|---|
| 1778064657 | 11.11° C | 94% | 1005.7 hPa | 0 mm | - | 107 W/m² | - |
| 1778064175 | 11.11° C | 94% | 1005.6 hPa | 0 mm | - | 95 W/m² | - |
| 1778063813 | 11.11° C | 94% | 1005.5 hPa | 0.25 mm | - | 88 W/m² | - |
| 1778063572 | 11.11° C | 94% | 1005.5 hPa | 0.25 mm | - | 83 W/m² | - |
| 1778063089 | 11.11° C | 94% | 1005.8 hPa | 0.51 mm | - | 88 W/m² | - |
| 1778062847 | 11.11° C | 94% | 1005.3 hPa | 0.51 mm | - | 91 W/m² | - |
| 1778062486 | 11.11° C | 95% | 1005.4 hPa | 0.51 mm | - | 139 W/m² | - |
| 1778062366 | 11.11° C | 95% | 1005.4 hPa | 0.76 mm | - | 149 W/m² | - |
| 1778062247 | 11.11° C | 94% | 1005.4 hPa | 0.76 mm | - | 151 W/m² | - |
| 1778062127 | 11.11° C | 94% | 1005.4 hPa | 0.76 mm | - | 120 W/m² | - |
| 1778062007 | 10.56° C | 94% | 1005.3 hPa | 1.02 mm | - | 113 W/m² | - |
| 1778061768 | 11.11° C | 94% | 1005.4 hPa | 1.02 mm | - | 116 W/m² | - |
| 1778061161 | 10.56° C | 95% | 1005.2 hPa | 1.78 mm | - | 107 W/m² | - |
| 1778061041 | 10.56° C | 95% | 1005.2 hPa | 2.03 mm | - | 125 W/m² | - |
| 1778060800 | 10.56° C | 95% | 1005.2 hPa | 2.29 mm | - | 109 W/m² | - |
| 1778060681 | 10.56° C | 95% | 1005.2 hPa | 2.54 mm | - | 127 W/m² | - |
| 1778060560 | 10.56° C | 95% | 1005.2 hPa | 2.79 mm | - | 144 W/m² | - |
| 1778060321 | 10.56° C | 95% | 1005.2 hPa | 3.05 mm | - | 127 W/m² | - |
| 1778059836 | 10.56° C | 94% | 1005.2 hPa | 3.3 mm | - | 105 W/m² | - |
| 1778059475 | 10.56° C | 95% | 1005.1 hPa | 3.56 mm | - | 107 W/m² | - |
| 1778059355 | 10.56° C | 94% | 1005.1 hPa | 3.56 mm | - | 76 W/m² | - |
| 1778059236 | 10.56° C | 95% | 1005.1 hPa | 3.81 mm | - | 86 W/m² | - |
| 1778058992 | 10.56° C | 95% | 1005.1 hPa | 3.81 mm | - | 88 W/m² | - |
| 1778058634 | 10.56° C | 95% | 1005 hPa | 4.06 mm | - | 111 W/m² | - |
| 1778058390 | 10° C | 94% | 1005 hPa | 4.32 mm | - | 79 W/m² | - |
* Rain latest hour (hover to see other rain measurements)
** Current wind speed in m/s (hover to see current wind gust speed)